Retour au catalogue

VIASAT 2

ActifCommunicationsGEO
NORAD 42740·PAYLOAD·🇺🇸 United States

Lancé Jun 1, 2017 depuis Guiana Space Centre

Loading…

TLE

FraisSource: Space-Track

Époque: Sep 14, 2026, 13:28 UTC

1 42740U 17029A   26257.56132095 -.00000273  00000-0  00000-0 0  9992
2 42740   0.0200 241.2930 0000903 263.0784 341.3043  1.00272162 34099

Suivez VIASAT 2 en temps réel avec AllMySat

Download on the App Store